Wetbulb
69.94 72.08 72.66 73.18 73.13 72.98 72.91 72.74 72.69 73.17 73.94 74.38 74.27 74.03 73.96 73.95 73.85 73.92 74.00 74.04 74.23 74.12 73.64 73.19 72.88 72.85 72.94 72.59 72.83 72.73 71.38 71.65 70.97 71.42 71.64 71.42 70.76 70.47 70.31 70.63 70.46 69.91 71.34
70.73 71.58 71.93 72.91 73.19 73.17 73.23 73.09 73.10 73.08 73.50 73.88 73.79 74.02 74.03 73.89 73.93 73.83 73.68 73.70 74.03 73.75 73.27 73.35 72.98 72.77 73.17 72.71 71.71 72.04 72.08 71.55 71.27 71.27 71.58 71.57 71.59 70.79 69.79 70.52 70.52 70.55 70.79
69.61 70.68 71.49 71.78 72.53 72.85 73.22 73.20 73.25 73.41 73.42 73.60 73.41 73.12 73.30 73.36 73.34 73.51 73.40 73.49 73.70 73.60 73.25 73.17 73.17 72.77 73.30 72.67 71.35 71.22 71.39 71.58 71.21 71.00 71.30 69.74 69.36 70.47 69.71 70.22 70.74 70.85 70.18
69.40 69.74 70.32 70.79 71.27 71.71 71.81 71.92 72.26 72.54 72.60 72.54 73.04 73.06 72.93 72.82 72.91 73.28 73.04 72.90 72.93 72.87 72.78 72.77 73.02 73.03 72.85 71.98 71.03 70.46 70.67 70.81 70.65 70.58 68.86 69.20 69.09 70.81 69.75 69.78 70.28 69.89 69.81
67.44 68.10 67.90 68.35 68.42 68.85 68.98 69.10 69.30 69.49 69.49 69.87 70.12 70.71 71.29 72.34 72.74 72.97 72.44 72.21 72.67 72.39 72.71 72.61 72.73 73.13 71.91 71.39 70.61 69.92 69.96 69.99 69.96 69.61 67.64 68.01 68.37 70.19 70.12 69.92 70.03 70.02 69.88
65.26 64.75 65.61 66.65 67.09 67.22 67.03 66.47 66.20 66.07 65.98 65.79 65.80 66.68 68.31 69.48 70.39 71.66 71.93 72.09 72.37 71.96 71.88 72.50 72.50 72.02 70.86 70.47 70.11 69.71 69.20 69.23 69.30 68.46 68.10 68.72 68.51 70.41 70.12 69.79 69.79 69.99 69.47
62.40 61.42 62.66 64.66 64.96 64.94 64.50 63.72 63.24 63.08 62.67 62.58 62.63 62.60 64.15 65.58 67.79 69.47 70.49 70.94 71.29 71.96 71.78 71.80 71.80 71.12 70.27 69.94 69.90 69.28 68.61 68.35 68.36 67.67 67.82 68.66 69.00 70.68 70.17 69.74 69.76 69.73 69.48
59.72 59.64 60.37 62.52 61.80 61.17 60.96 60.61 60.52 60.99 61.48 62.53 62.56 63.86 63.37 64.46 65.40 67.29 68.70 69.77 70.35 70.84 70.94 70.91 70.45 70.28 69.94 69.54 69.25 68.92 67.84 67.57 68.01 67.24 67.86 68.36 68.82 70.51 70.21 69.72 69.68 69.20 69.15
61.16 60.20 59.70 59.74 61.28 61.42 61.18 60.68 60.46 60.79 61.36 61.97 63.17 63.40 63.60 64.48 65.06 66.07 67.43 69.15 68.92 68.90 69.26 69.77 69.74 69.38 69.29 69.04 68.64 67.68 67.22 67.38 66.98 67.02 67.73 68.13 70.16 70.32 70.17 69.68 69.21 68.94 68.95
58.04 57.21 56.70 56.76 57.50 57.60 55.24 60.19 60.01 60.08 60.26 62.76 62.55 62.31 62.11 61.60 62.73 63.11 62.65 65.30 64.85 66.49 67.67 68.32 68.25 68.53 68.63 68.27 67.71 67.18 66.60 67.02 66.79 66.59 66.89 66.77 69.94 70.71 70.54 69.52 69.13 69.10 68.56
56.09 55.05 54.67 54.67 54.89 55.36 55.77 58.99 60.76 61.95 62.11 61.22 59.83 60.82 58.29 56.89 57.29 58.23 61.85 63.95 64.27 64.88 65.57 66.57 67.38 67.26 66.95 67.31 67.22 66.89 66.60 66.71 66.55 66.61 66.89 67.15 69.98 71.55 70.71 69.96 69.20 69.00 68.67
53.05 53.02 53.53 53.75 53.40 53.72 56.17 54.94 54.59 55.77 55.48 56.12 56.03 55.05 55.72 55.32 57.44 58.62 59.07 61.56 61.97 62.99 62.53 63.01 63.36 65.16 67.09 67.13 67.26 66.90 66.64 66.93 67.24 67.22 67.32 66.96 69.66 71.07 70.80 70.05 69.24 69.07 68.55
52.28 52.99 53.16 53.46 52.99 52.68 53.30 52.99 53.04 52.95 53.81 53.92 54.71 54.23 54.39 54.89 54.85 55.52 55.08 55.61 55.34 59.54 56.53 57.54 57.10 57.06 57.16 58.94 60.49 63.84 66.63 66.67 66.90 67.97 68.14 66.18 68.90 71.14 71.52 70.09 69.37 68.99 68.48
51.34 51.39 52.21 52.49 52.54 52.09 52.27 52.65 52.22 52.59 52.61 52.97 53.94 54.13 53.09 52.86 52.89 53.30 53.83 54.48 54.26 55.06 54.17 54.31 54.94 55.53 55.77 56.33 56.98 58.87 63.02 65.28 66.84 67.49 66.58 65.61 67.05 69.98 71.35 70.48 69.63 69.37 68.44
51.02 51.42 51.52 52.00 51.15 51.67 51.60 51.64 52.08 50.98 51.81 52.71 53.07 53.98 52.93 52.24 52.08 52.16 52.85 53.86 53.69 54.19 53.65 54.04 54.12 54.67 54.78 55.74 56.14 56.12 58.35 61.72 65.30 66.41 66.23 65.08 65.82 68.84 70.41 70.83 70.38 69.67 69.20
51.89 51.14 51.13 51.24 50.92 51.19 50.46 50.31 51.07 50.34 51.37 51.75 52.51 52.80 52.74 51.99 51.14 51.24 51.78 52.63 52.89 53.09 53.63 53.46 52.93 52.88 52.80 53.53 53.62 54.07 54.83 56.90 60.85 64.09 66.19 65.95 63.81 65.84 67.56 69.37 70.34 70.34 69.91
51.18 51.17 50.36 50.67 50.78 50.13 49.73 49.80 50.17 50.16 51.27 50.66 51.47 51.43 51.32 51.89 50.60 50.37 50.45 51.36 51.83 52.27 52.60 52.86 52.10 52.15 51.83 52.65 52.03 52.89 53.60 53.84 55.06 58.06 63.54 65.99 65.26 62.56 64.35 66.32 67.48 68.78 69.62
50.00 48.99 49.53 53.01 49.95 49.30 48.71 49.11 49.89 49.78 49.88 49.73 50.44 50.32 51.00 51.36 50.97 49.54 49.56 50.43 50.39 50.42 51.03 50.11 50.05 49.74 48.94 49.57 50.14 51.27 51.70 52.61 53.39 54.46 57.48 63.14 65.20 66.27 63.23 63.55 65.57 66.40 67.43
48.79 48.69 48.56 48.68 48.20 48.54 48.72 48.71 48.84 49.64 48.73 49.02 48.97 49.14 50.37 50.17 50.75 48.93 48.66 49.02 49.47 49.14 48.61 48.48 48.76 47.51 46.88 47.39 48.59 49.13 49.94 50.98 52.02 54.23 54.02 56.27 62.30 64.49 65.20 63.46 62.84 63.86 65.02
46.58 47.39 47.89 47.97 47.57 48.12 47.93 47.56 48.21 47.50 48.01 48.08 47.94 48.95 49.08 48.96 49.53 48.19 47.73 47.53 47.67 46.45 45.81 46.63 45.41 46.24 46.77 46.90 47.11 47.68 47.90 48.44 49.11 51.41 52.88 55.78 56.58 58.89 62.35 64.94 63.71 63.14 62.16
46.78 47.43 47.41 47.00 46.73 45.25 44.86 44.58 44.44 44.35 46.00 46.83 47.55 49.00 48.49 48.61 48.35 46.99 47.29 46.56 46.39 44.55 44.00 44.64 45.35 45.15 45.23 45.94 44.88 44.94 46.02 48.40 48.84 48.45 49.46 51.03 53.76 53.99 54.63 61.51 63.74 63.20 63.34
45.80 45.89 45.89 45.75 45.39 45.03 43.59 44.01 44.27 44.00 45.50 46.72 46.94 47.21 47.87 47.69 47.45 47.49 46.29 45.90 45.17 43.52 43.28 43.34 43.85 43.41 43.40 44.94 43.32 43.83 41.53 43.93 46.97 47.49 47.90 48.77 48.73 50.47 52.82 55.40 58.54 63.19 63.13
44.09 44.68 45.48 44.96 44.49 44.98 45.14 45.09 44.82 44.66 44.60 43.98 44.91 45.15 46.33 47.36 47.52 46.52 45.97 44.98 44.42 43.82 42.50 43.35 43.15 42.71 41.36 43.29 43.82 43.06 41.07 40.13 42.38 45.60 46.25 47.19 47.86 49.18 49.73 51.52 54.35 55.84 60.90
42.86 43.61 43.83 44.62 44.33 45.80 45.21 44.01 43.18 42.09 41.42 42.95 44.16 44.93 45.71 46.25 46.63 46.59 45.25 44.22 43.29 42.94 41.63 42.60 42.95 42.53 42.20 40.60 42.63 44.09 43.92 43.66 40.12 38.82 44.74 45.98 46.95 47.18 48.10 49.19 50.79 51.83 54.41
43.40 42.61 42.97 43.86 44.66 44.97 44.80 44.21 42.80 41.97 42.19 43.12 43.95 44.01 43.79 44.75 45.39 44.81 44.35 43.09 41.88 41.15 40.57 41.81 41.55 41.35 42.18 41.54 41.09 41.42 41.70 42.46 43.00 41.22 38.64 41.83 44.53 45.87 47.34 47.93 49.09 50.23 52.42
43.47 42.86 42.78 42.15 43.06 43.54 43.03 42.77 41.81 40.79 41.27 40.90 41.09 41.09 41.95 43.24 43.45 43.13 43.54 42.00 41.13 40.17 41.05 40.95 41.02 41.06 41.13 41.48 41.74 41.28 40.47 39.11 39.15 39.38 38.34 38.12 39.31 43.25 45.62 46.09 47.10 48.85 50.30
MSLP
1014.02 1014.07 1013.78 1013.56 1013.63 1013.57 1013.53 1013.49 1013.49 1013.40 1013.44 1013.67 1013.82 1013.92 1014.00 1013.94 1013.95 1014.03 1014.12 1014.24 1014.30 1014.27 1014.37 1014.34 1014.46 1014.52 1014.44 1014.46 1014.56 1014.60 1014.55 1014.67 1014.74 1014.65 1014.53 1014.45 1014.41 1014.36 1014.26 1014.27 1014.14 1014.04 1014.21
1014.04 1014.22 1013.88 1013.74 1013.57 1013.61 1013.63 1013.64 1013.56 1013.64 1013.68 1013.80 1013.96 1014.11 1014.30 1014.20 1014.16 1014.24 1014.25 1014.30 1014.37 1014.37 1014.36 1014.39 1014.41 1014.49 1014.51 1014.48 1014.60 1014.71 1014.75 1014.83 1014.85 1014.74 1014.66 1014.51 1014.27 1014.37 1014.34 1014.42 1014.28 1014.30 1014.31
1014.18 1014.17 1013.92 1013.85 1013.71 1013.72 1013.74 1013.71 1013.72 1013.80 1013.90 1013.84 1013.90 1014.14 1014.25 1014.35 1014.42 1014.36 1014.41 1014.41 1014.52 1014.43 1014.47 1014.41 1014.39 1014.49 1014.56 1014.55 1014.53 1014.60 1014.72 1014.73 1014.78 1014.75 1014.66 1014.44 1014.36 1014.28 1014.36 1014.38 1014.41 1014.38 1014.53
1013.85 1014.26 1014.28 1014.00 1014.05 1014.09 1013.94 1013.91 1013.92 1014.02 1014.14 1014.08 1014.06 1014.16 1014.20 1014.36 1014.51 1014.53 1014.51 1014.48 1014.53 1014.52 1014.49 1014.43 1014.41 1014.45 1014.49 1014.58 1014.52 1014.55 1014.59 1014.56 1014.64 1014.56 1014.46 1014.32 1014.34 1014.08 1014.27 1014.29 1014.44 1014.40 1014.71
1014.55 1014.42 1014.37 1014.43 1014.36 1014.33 1014.29 1014.38 1014.49 1014.56 1014.50 1014.40 1014.41 1014.45 1014.43 1014.47 1014.47 1014.48 1014.59 1014.60 1014.57 1014.49 1014.49 1014.45 1014.41 1014.51 1014.56 1014.55 1014.50 1014.64 1014.62 1014.50 1014.55 1014.38 1014.37 1014.23 1013.97 1013.93 1014.20 1014.30 1014.36 1014.41 1014.65
1014.66 1014.65 1014.91 1014.66 1014.48 1014.56 1014.64 1014.77 1014.91 1015.01 1014.97 1014.83 1014.79 1014.74 1014.74 1014.76 1014.68 1014.65 1014.60 1014.57 1014.56 1014.52 1014.49 1014.47 1014.46 1014.50 1014.45 1014.38 1014.51 1014.56 1014.51 1014.54 1014.48 1014.21 1014.21 1014.01 1013.93 1013.88 1014.16 1014.43 1014.40 1014.51 1014.75
1014.77 1014.86 1014.79 1014.74 1014.81 1014.98 1015.11 1015.25 1015.32 1015.29 1015.26 1015.09 1015.01 1015.00 1014.91 1014.79 1014.67 1014.62 1014.58 1014.62 1014.60 1014.55 1014.48 1014.41 1014.37 1014.37 1014.30 1014.35 1014.43 1014.35 1014.40 1014.45 1014.40 1014.20 1014.16 1014.00 1013.70 1013.84 1014.23 1014.49 1014.53 1014.65 1014.80
1014.61 1014.74 1014.77 1014.96 1015.15 1015.31 1015.42 1015.58 1015.62 1015.59 1015.52 1015.35 1015.33 1015.14 1015.02 1014.82 1014.76 1014.60 1014.52 1014.56 1014.52 1014.50 1014.41 1014.33 1014.29 1014.18 1014.16 1014.16 1014.18 1014.19 1014.18 1014.23 1014.14 1014.09 1013.93 1013.94 1013.83 1013.81 1014.04 1014.41 1014.59 1014.74 1014.95
1014.37 1014.66 1014.90 1015.12 1015.27 1015.42 1015.44 1015.62 1015.70 1015.70 1015.62 1015.54 1015.51 1015.32 1015.11 1014.88 1014.78 1014.71 1014.44 1014.45 1014.44 1014.38 1014.29 1014.18 1014.12 1014.00 1013.94 1013.94 1013.88 1013.88 1013.94 1013.95 1013.95 1013.79 1013.53 1013.72 1013.59 1013.58 1013.94 1014.12 1014.59 1014.78 1014.98
1014.57 1014.80 1015.05 1015.22 1015.24 1015.54 1015.48 1015.42 1015.57 1015.69 1015.71 1015.67 1015.70 1015.68 1015.42 1015.19 1015.04 1014.79 1014.68 1014.61 1014.35 1014.25 1014.17 1014.06 1013.90 1013.76 1013.61 1013.67 1013.62 1013.61 1013.57 1013.63 1013.71 1013.65 1013.33 1013.12 1013.11 1013.30 1013.66 1014.11 1014.21 1014.44 1014.90
1014.78 1014.98 1015.20 1015.30 1015.37 1015.57 1015.55 1015.44 1015.64 1015.74 1015.89 1015.93 1015.99 1016.01 1015.89 1015.67 1015.48 1015.18 1014.98 1014.75 1014.50 1014.24 1014.04 1013.92 1013.67 1013.52 1013.47 1013.44 1013.42 1013.24 1013.21 1013.30 1013.42 1013.19 1012.96 1012.73 1012.59 1012.76 1013.05 1013.81 1014.02 1014.16 1014.41
1015.05 1015.31 1015.50 1015.52 1015.66 1015.63 1015.62 1015.87 1016.03 1016.00 1016.16 1016.31 1016.32 1016.32 1016.33 1016.06 1015.83 1015.61 1015.42 1015.08 1014.67 1014.39 1014.17 1014.02 1013.77 1013.59 1013.54 1013.44 1013.20 1013.01 1012.95 1012.69 1012.73 1012.60 1012.45 1012.37 1012.43 1012.51 1012.71 1013.10 1013.36 1013.73 1014.06
1014.88 1015.30 1015.71 1015.89 1015.86 1015.89 1015.98 1016.23 1016.43 1016.43 1016.45 1016.49 1016.62 1016.52 1016.68 1016.57 1016.25 1016.03 1015.88 1015.57 1015.23 1014.81 1014.75 1014.53 1014.35 1014.17 1014.07 1013.84 1013.40 1013.08 1012.80 1012.58 1012.39 1012.02 1011.83 1011.81 1011.84 1011.69 1012.10 1012.58 1012.90 1013.17 1013.49
1014.89 1015.48 1015.94 1016.12 1016.14 1016.20 1016.18 1016.37 1016.48 1016.73 1016.66 1016.92 1016.94 1016.69 1016.86 1017.08 1016.91 1016.62 1016.39 1016.05 1015.77 1015.65 1015.32 1015.06 1014.85 1014.51 1014.21 1013.90 1013.53 1013.04 1012.83 1012.62 1012.42 1012.08 1011.61 1011.39 1011.24 1011.06 1011.27 1011.99 1012.42 1012.62 1013.01
1014.89 1015.69 1016.14 1016.49 1016.48 1016.34 1016.43 1016.59 1016.76 1016.89 1016.92 1017.07 1017.25 1017.06 1016.94 1017.08 1017.20 1017.00 1016.76 1016.37 1016.22 1015.93 1015.75 1015.40 1015.16 1014.83 1014.51 1014.21 1013.91 1013.52 1012.87 1012.42 1012.11 1011.92 1011.62 1011.23 1010.97 1010.88 1011.03 1011.59 1011.81 1012.19 1012.44
1014.76 1015.49 1016.13 1016.52 1016.52 1016.31 1016.67 1016.64 1016.86 1016.86 1016.97 1017.01 1017.46 1017.37 1017.25 1017.30 1017.33 1017.32 1017.17 1016.93 1016.72 1016.43 1016.06 1015.83 1015.62 1015.33 1015.06 1014.63 1014.23 1013.80 1013.27 1012.71 1012.11 1011.58 1011.29 1011.08 1010.98 1010.79 1010.57 1010.78 1011.29 1011.72 1011.84
1014.66 1015.28 1016.05 1016.57 1016.50 1016.62 1016.84 1016.67 1016.80 1016.88 1016.98 1017.14 1017.68 1017.47 1017.47 1017.65 1017.45 1017.57 1017.45 1017.46 1017.08 1016.78 1016.53 1016.35 1016.10 1015.79 1015.57 1015.18 1014.62 1014.08 1013.36 1012.70 1012.09 1011.54 1010.97 1010.59 1010.58 1010.64 1010.54 1010.56 1010.44 1010.70 1011.06
1014.53 1015.24 1016.04 1016.64 1016.57 1016.67 1016.96 1016.85 1016.81 1016.95 1017.20 1017.38 1017.81 1017.70 1017.60 1017.68 1017.75 1017.61 1017.60 1017.64 1017.38 1017.16 1017.11 1017.00 1016.67 1016.27 1016.02 1015.65 1015.03 1014.30 1013.71 1012.98 1012.24 1011.65 1011.10 1010.51 1010.17 1010.05 1010.07 1010.06 1010.00 1009.91 1010.04
1014.78 1015.56 1016.40 1016.95 1016.89 1016.74 1016.66 1016.76 1016.94 1017.07 1017.18 1017.51 1017.90 1017.94 1017.94 1017.95 1017.96 1017.95 1017.98 1017.82 1017.72 1017.66 1017.68 1017.55 1017.22 1016.97 1016.57 1016.07 1015.41 1014.67 1013.86 1012.97 1012.23 1011.58 1011.12 1010.63 1010.17 1009.83 1009.63 1009.49 1009.35 1009.32 1009.34
1015.34 1015.98 1016.69 1017.13 1017.01 1016.81 1016.70 1016.77 1017.19 1017.40 1017.45 1017.51 1017.80 1017.97 1018.18 1018.23 1018.20 1018.30 1018.23 1018.19 1018.12 1018.19 1018.00 1017.95 1017.66 1017.29 1016.92 1016.43 1015.83 1014.79 1013.81 1012.77 1012.21 1011.96 1011.47 1010.66 1010.09 1009.58 1009.29 1008.97 1008.89 1008.80 1008.83
1015.29 1016.09 1016.88 1017.34 1017.30 1017.14 1017.03 1017.18 1017.56 1017.81 1017.76 1018.01 1017.85 1017.93 1017.97 1018.34 1018.41 1018.59 1018.48 1018.45 1018.50 1018.53 1018.49 1018.39 1018.14 1017.80 1017.23 1016.98 1015.89 1014.71 1013.25 1012.44 1012.10 1012.13 1011.92 1011.47 1010.79 1010.45 1009.98 1009.12 1008.55 1008.24 1008.23
1014.71 1015.97 1016.84 1017.50 1017.64 1017.59 1017.46 1017.46 1017.55 1017.58 1017.83 1018.03 1018.14 1018.31 1018.15 1018.18 1018.51 1018.50 1018.71 1018.86 1018.73 1018.80 1018.83 1018.82 1018.67 1018.29 1017.98 1017.65 1017.05 1015.81 1014.15 1013.01 1012.23 1012.08 1012.07 1011.68 1011.29 1010.89 1010.29 1009.49 1008.92 1008.25 1007.83
1014.60 1015.36 1016.57 1017.35 1017.79 1017.87 1017.91 1017.70 1017.72 1017.86 1018.28 1018.46 1018.62 1018.52 1018.52 1018.55 1018.63 1018.81 1018.91 1019.03 1019.08 1019.07 1019.14 1019.14 1018.96 1018.84 1018.54 1018.18 1017.96 1017.57 1016.21 1015.24 1014.30 1012.35 1012.14 1011.89 1011.58 1011.17 1010.86 1010.38 1009.55 1009.15 1008.26
1014.75 1015.46 1016.03 1017.01 1017.92 1018.19 1018.30 1018.30 1018.47 1018.64 1019.00 1019.03 1019.05 1018.90 1019.10 1018.88 1019.12 1019.32 1019.39 1019.45 1019.56 1019.52 1019.45 1019.44 1019.36 1019.24 1019.02 1018.65 1018.25 1017.92 1017.92 1017.35 1016.00 1013.28 1012.53 1012.32 1011.86 1011.72 1011.13 1010.58 1010.06 1009.43 1008.93
1014.78 1015.71 1016.24 1016.76 1017.62 1018.31 1018.54 1018.77 1018.95 1019.22 1019.41 1019.21 1019.12 1019.39 1019.54 1019.48 1019.62 1019.79 1019.71 1019.78 1019.85 1019.92 1019.87 1019.82 1019.70 1019.51 1019.30 1019.01 1018.59 1018.12 1017.75 1017.22 1016.59 1015.55 1012.95 1012.55 1011.95 1011.70 1011.15 1010.71 1010.21 1009.60 1008.84
1014.83 1015.74 1016.52 1017.26 1017.93 1018.34 1018.80 1019.03 1019.31 1019.70 1019.81 1019.83 1019.99 1020.08 1020.11 1020.16 1020.26 1020.21 1020.20 1020.26 1020.27 1020.16 1020.15 1020.03 1019.87 1019.61 1019.35 1019.03 1018.70 1018.39 1018.07 1017.66 1016.85 1015.99 1014.55 1013.50 1012.82 1011.55 1010.97 1010.74 1010.15 1009.43 1008.59
Wind_Speed
7 4 8 10 10 10 10 11 11 12 12 11 9 8 7 7 6 7 7 7 7 6 5 6 6 6 7 8 8 7 5 5 6 7 6 6 2 3 5 5 4 7 8
9 6 10 10 11 11 11 11 11 11 11 11 10 9 7 7 7 6 6 6 5 6 7 5 4 5 7 7 8 8 6 6 7 7 7 7 5 1 4 6 10 8 11
10 8 10 11 12 12 12 12 12 11 11 11 10 8 8 7 6 6 6 6 6 6 6 5 4 5 5 5 6 7 7 7 8 8 8 4 4 3 4 6 7 10 12
11 8 8 12 13 13 13 13 12 12 11 11 10 9 8 7 7 7 6 5 5 6 6 7 7 7 6 5 5 6 7 7 8 9 5 5 6 8 6 8 9 11 12
9 9 10 14 14 15 15 15 14 13 12 12 11 10 9 9 7 6 6 6 5 6 6 6 7 7 6 5 5 6 6 6 7 8 5 5 4 8 9 9 10 12 12
9 9 9 13 14 15 15 14 13 13 13 13 12 11 9 8 8 8 6 6 6 5 6 7 6 6 6 5 5 6 6 7 7 6 5 6 5 10 10 11 10 12 12
8 6 8 13 15 15 14 14 13 12 12 12 12 12 10 8 7 7 6 7 7 7 6 5 5 6 7 6 6 6 7 6 5 6 5 5 5 12 12 12 13 13 13
9 7 8 13 14 14 14 13 11 10 10 10 11 12 12 9 8 7 7 6 6 7 7 7 7 7 8 8 7 7 6 6 5 6 5 4 7 11 12 13 14 14 13
8 7 6 6 9 11 10 8 8 8 9 9 11 15 15 11 10 11 9 5 5 6 7 7 8 8 9 9 8 7 7 7 5 5 6 2 9 11 13 16 16 15 14
7 7 7 6 5 5 4 7 4 6 7 11 14 15 14 13 15 11 11 7 10 10 9 10 10 10 10 9 9 9 9 9 6 5 6 4 14 14 16 16 17 17 15
6 7 7 6 6 4 4 4 2 9 10 11 11 14 10 6 7 9 12 13 14 12 10 10 11 11 10 9 10 11 11 5 6 6 5 9 16 17 17 17 17 17 17
7 6 6 6 6 5 4 6 6 6 5 5 6 7 6 7 7 10 12 15 16 15 12 11 14 12 7 4 4 8 4 8 6 6 6 9 14 17 19 19 20 19 18
7 6 7 6 5 5 5 4 3 3 3 4 6 6 6 6 5 6 5 6 6 10 7 9 9 7 7 6 7 6 6 4 4 5 7 9 17 19 19 21 21 21 20
8 7 6 6 4 5 4 4 4 3 3 4 4 7 5 4 5 6 5 6 5 5 7 6 5 8 8 8 8 9 6 5 3 4 5 9 16 19 20 23 23 23 22
9 7 7 6 4 4 6 3 4 4 4 4 4 6 5 5 6 5 7 6 5 7 6 7 6 5 7 9 9 9 10 6 5 3 3 10 12 15 17 19 23 24 25
11 9 7 5 3 5 4 3 4 4 3 5 4 5 6 5 5 5 6 6 6 7 7 6 5 8 8 9 10 10 10 9 9 6 4 4 11 12 15 19 20 23 25
9 9 8 6 4 5 4 3 5 3 4 5 5 6 7 5 6 5 5 5 6 7 8 8 9 8 8 9 11 10 10 10 10 10 7 4 4 12 14 16 17 21 24
11 10 7 6 5 5 3 3 3 3 3 4 4 4 7 6 6 5 4 4 5 5 7 7 8 8 8 9 9 10 10 10 11 11 8 6 4 6 8 18 19 18 22
10 9 7 6 4 3 3 2 2 3 4 5 4 4 6 6 6 5 4 5 7 7 7 8 7 8 8 9 10 10 10 10 11 9 10 10 7 7 7 9 17 19 17
9 9 7 4 2 2 0 2 3 3 4 4 4 5 6 5 6 5 5 6 6 6 7 8 9 8 9 11 12 9 11 11 8 5 7 9 10 9 7 9 6 8 17
9 8 5 5 2 3 3 4 4 2 2 3 3 7 6 6 6 6 4 5 5 6 6 7 7 11 9 11 9 12 5 7 1 3 9 7 8 11 12 10 6 5 5
10 10 6 5 6 5 3 1 2 2 2 3 4 4 6 6 6 5 5 5 6 4 6 7 10 7 8 10 8 9 7 6 7 15 4 9 10 10 10 11 13 6 5
11 10 9 8 6 5 6 2 3 3 4 3 4 4 5 6 6 6 7 5 6 4 4 7 8 10 8 8 11 5 7 5 15 4 14 5 15 8 12 13 13 15 13
9 9 10 9 7 6 7 6 6 4 3 2 2 3 5 7 7 8 6 6 6 5 6 7 8 7 7 7 7 6 7 9 5 11 4 14 6 13 12 11 11 12 13
11 9 8 10 8 6 6 6 5 5 3 2 3 7 6 6 7 8 6 6 6 4 5 7 7 7 5 6 6 7 8 7 8 8 14 11 14 10 11 11 10 9 10
10 9 8 9 7 7 7 7 7 6 5 5 7 6 5 4 4 8 7 6 5 5 8 7 7 8 7 6 5 6 7 7 9 9 13 15 15 13 13 12 10 11 9
Wind_Direction
78 88 82 79 79 75 71 67 65 64 68 66 64 61 58 63 71 68 67 54 36 17 30 35 21 11 20 19 12 358 354 349 349 351 339 331 353 26 54 47 30 87 98
123 104 83 88 86 82 76 73 70 69 71 71 65 55 47 49 52 51 53 53 41 12 21 10 7 356 358 18 11 360 353 333 334 326 319 309 269 203 86 68 90 103 108
118 92 81 74 80 78 78 75 72 69 67 69 67 59 49 38 35 33 33 33 29 19 5 360 344 333 334 3 359 346 341 337 331 316 313 292 263 170 135 116 115 123 128
96 87 87 83 79 75 69 67 67 70 64 60 57 52 46 37 30 20 17 19 12 6 356 349 342 341 343 348 347 333 334 336 328 322 305 286 262 178 144 135 137 132 137
99 98 76 87 85 77 74 68 63 59 60 58 52 44 35 27 24 21 4 353 350 351 344 335 343 347 339 324 330 318 319 327 319 311 289 283 260 153 151 144 139 139 144
97 84 84 84 81 78 73 68 63 54 49 49 44 38 25 12 4 357 353 341 332 326 330 330 337 328 329 327 310 307 316 316 313 293 295 295 206 165 157 159 139 142 149
116 111 92 81 76 71 67 62 59 55 48 43 39 25 13 4 357 352 342 333 328 318 311 305 302 307 312 311 297 295 299 304 299 290 295 298 175 162 168 147 138 142 153
130 129 99 91 86 80 71 64 59 56 47 40 28 14 4 351 339 331 328 342 344 341 321 311 302 298 294 292 290 288 279 280 287 287 297 307 207 164 167 158 148 148 155
112 116 115 106 99 94 93 76 62 51 47 36 38 15 0 2 357 339 332 356 347 325 311 303 296 283 278 277 274 263 255 251 249 250 270 234 206 180 174 162 163 160 165
101 96 89 79 90 121 92 102 78 52 41 52 40 18 11 5 1 359 8 329 327 326 311 295 282 275 270 273 272 270 257 246 249 257 263 224 201 188 176 176 170 168 174
94 89 83 70 43 57 84 62 102 49 43 56 47 25 7 1 352 6 357 2 5 345 319 310 290 285 274 269 271 268 262 241 222 242 244 245 200 183 178 182 177 176 174
118 101 94 75 46 62 59 52 61 53 48 52 55 35 10 5 14 14 2 358 357 352 357 354 356 334 319 293 276 280 261 247 224 230 247 224 205 195 184 180 178 181 180
133 105 106 94 64 58 70 62 47 48 52 48 59 50 21 9 11 9 358 354 346 354 13 13 3 2 355 349 338 328 320 284 244 236 241 231 209 213 192 185 181 182 183
119 112 101 93 79 51 77 69 61 61 43 40 57 59 42 17 10 2 359 340 354 6 9 360 350 337 339 327 317 315 316 310 284 269 265 272 224 218 193 189 189 188 189
117 112 98 87 68 74 68 61 61 48 40 63 53 57 51 37 22 3 351 346 18 6 357 344 336 338 345 344 338 323 314 290 273 292 296 254 218 208 201 204 196 197 197
122 116 115 96 75 79 86 70 104 60 49 65 64 66 44 48 32 11 353 353 11 0 343 334 339 3 353 345 340 334 328 323 305 272 252 235 230 230 221 213 212 208 206
123 121 125 127 97 74 84 76 97 63 71 77 87 65 48 47 39 16 356 6 4 356 354 8 6 359 356 342 332 328 320 315 314 313 297 278 257 232 236 245 237 219 213
126 123 100 121 104 89 82 84 95 83 75 71 81 63 56 45 37 19 14 11 358 5 17 6 354 359 350 342 332 325 322 314 307 303 298 273 249 265 236 239 245 247 225
114 115 106 88 79 85 134 133 155 94 88 82 77 60 61 44 33 23 22 18 25 22 14 359 3 1 347 340 328 321 310 298 299 299 293 295 276 254 258 237 233 239 240
96 98 101 101 130 233 318 65 81 72 68 84 90 74 62 46 34 36 25 28 29 27 14 4 360 357 349 340 328 312 306 292 283 314 319 304 301 280 260 258 237 238 236
104 104 114 108 316 41 69 68 53 66 76 64 70 87 74 59 42 42 33 29 34 33 17 5 356 349 354 346 326 327 286 292 307 22 333 341 351 6 343 321 271 228 228
130 128 121 117 62 39 40 40 133 170 87 111 87 69 63 71 51 59 53 36 25 24 21 13 1 352 347 353 341 308 335 338 341 333 328 326 350 333 329 328 320 277 225
126 128 125 106 88 49 7 51 20 41 46 38 43 36 35 48 49 58 53 45 29 26 16 12 2 4 342 343 352 320 336 330 327 312 326 342 334 329 337 324 336 334 326
130 108 108 102 88 65 37 42 58 68 69 40 75 40 47 36 44 57 45 41 39 14 22 9 356 351 344 332 340 358 312 306 319 313 321 318 331 326 315 322 318 323 318
118 113 114 110 101 79 65 61 58 52 36 32 37 54 30 30 48 43 37 46 38 27 16 354 345 340 330 326 328 320 319 312 299 300 308 321 309 311 310 316 308 307 314
115 114 112 113 106 89 80 68 72 59 36 47 42 39 18 24 28 25 33 32 21 22 360 354 341 333 328 324 323 323 322 316 311 310 302 309 301 310 313 309 302 301 301